Вернуться в каталог

CZ-4C R/B

АктивенLEO
NORAD 47537·ROCKET BODY·🇨🇳 China

Запущен Jan 29, 2021 с Jiuquan Satellite Launch Center

Loading…

Ближайшие Пролёты (ближайшие 24 часа)

TLE

СвежийSource: Space-Track

Эпоха: Sep 14, 2026, 10:42 UTC

1 47537U 21007F   26257.44633548 -.00000033  00000-0  53055-4 0  9994
2 47537  63.4462  69.3946 0311218   1.3692 358.8127 13.68051518281000

Отслеживайте CZ-4C R/B в реальном времени с AllMySat

Download on the App Store